Tracking 30107 objects as of 18-Jan-2025
HD Live streaming from Space Station
objects crossing your sky now

MOLNIYA 3-8

Track MOLNIYA 3-8 now!
MOLNIYA 3-8 is classified as:


NORAD ID: 10455
Int'l Code: 1977-105A
Perigee: 1,777.6 km
Apogee: 38,571.4 km
Inclination: 63.8 °
Period: 717.4 minutes
Semi major axis: 26545 km
RCS: 13.5006 m2 (large)
Launch date: October 28, 1977
Source: Commonwealth of Independent States (former USSR) (CIS)
Launch site: PLESETSK MISSILE AND SPACE COMPLEX (PKMTR)
Your satellite tracking list
Your tracking list is empty




NASA's NSSDC Master Catalog

Two Line Element Set (TLE):
1 10455U 77105A   25011.71146654  .00001115  00000-0  00000-0 0  9996
2 10455  63.7598 231.0844 6930314 281.1062  13.9353  2.00731827345986
Source of the keplerian elements: AFSPC